Regional Weather Roundup
Issued by NWS Charleston, WV

Home | Current Version | Previous Version | Graphics & Text | Print | Product List | Glossary On
Versions: 1 2 3 4 5 6 7 8 9 10 11 12 13 14 15 16 17 18 19 20 21 22 23 24 25 26 27 28 29 30 31 32 33 34 35 36 37 38 39 40 41 42 43 44 45 46 47 48 49 50
000
ASUS41 KRLX 291610
RWRRLX
West Virginia Regional Weather Roundup
National Weather Service Charleston WV
1200 PM EDT MON JUN 29 2015

Note: "fair" indicates few or no clouds below 12,000 feet with no
significant weather and/or obstructions to visibility.

WVZ003-291700-
Northern Panhandle of West Virginia

CITY           SKY/WX    TMP DP  RH WIND       PRES   REMARKS
WHEELING       MOSUNNY   74  57  55 SW7       29.96F
$$

WVZ009-291700-
Northwest West Virginia

CITY           SKY/WX    TMP DP  RH WIND       PRES   REMARKS
PARKERSBURG    PTSUNNY   74  58  57 VRB3      29.97F
$$

WVZ006-291700-
Western West Virginia

CITY           SKY/WX    TMP DP  RH WIND       PRES   REMARKS
HUNTINGTON     LGT RAIN  67  59  75 VRB5      29.93S
$$

WVZ015-291700-
West Central West Virginia

CITY           SKY/WX    TMP DP  RH WIND       PRES   REMARKS
CHARLESTON     MOSUNNY   76  55  48 S9        29.95F
$$

WVZ022-031-291700-
North Central West Virginia

CITY           SKY/WX    TMP DP  RH WIND       PRES   REMARKS
CLARKSBURG     MOSUNNY   73  56  54 S6        29.97F
MORGANTOWN     MOSUNNY   74  52  46 S3        29.98F
$$

WVZ025-035-042-045-291700-
Southern West Virginia

CITY           SKY/WX    TMP DP  RH WIND       PRES   REMARKS
BECKLEY        PTSUNNY   71  51  49 SW12      30.04F
LOGAN            N/A     72  57  60 VRB3G12   29.95F
BLUEFIELD      MOSUNNY   73  49  42 SW8       30.06F
LEWISBURG      MOSUNNY   73  51  46 SW8       30.04F
$$

WVZ047-291700-
Northern Mountains of West Virginia

CITY           SKY/WX    TMP DP  RH WIND       PRES   REMARKS
ELKINS         SUNNY     71  47  42 MISG      30.01F
$$

WVZ052-291700-
Eastern Panhandle of West Virginia

CITY           SKY/WX    TMP DP  RH WIND       PRES   REMARKS
MARTINSBURG    MOSUNNY   76  54  46 CALM      29.98S
PETERSBURG     SUNNY     75  47  37 S6        29.99F
$$


USA.gov is the U.S. government's official web portal to all federal, state and local government web resources and services.